Content
SEND FEEDBACK

Canada Flag

QUEBEC CITY, QUEBEC


Home > North America > Canada > Quebec
Elevation: 72 meters     Latitude: 46 48N     Longitude: 071 23W

WEATHER
 
SELECT A DAY
Number of Records: 215,370;   Date Range: 6/30/96 - 3/22/16
 
SHARE

PRINT THIS DATA

[ ← Previous Day ]
WEATHER ALMANAC - 16 FEBRUARY, 2014
[ Next Day → ]
[ °F ]   °C
Weather ElementAverageHighLow
Temperature-9.1 °C-5 °C (1:00 pm)-13 °C (8:00 am)
Dewpoint-13.3 °C-8.9 °C (1:00 am)-19 °C (11:00 pm)
Humidity71 %93 % (1:38 am)42 % (10:00 pm)
Barometer1006.1 hPa1013.2 hPa (11:00 pm)1003.4 hPa (5:42 am)
Wind Speed16.3 km/h29.6 km/h (5:00 pm)
Wind Gust46.3 km/h (1:00 pm)
Weather ElementAverage
Visibility21.9 km
Wind DirectionWSW (237.4 °)

Weather ElementTotal
Precipitation---
Heating Degree Days27.3 (Base 18.3)
Averaged from 35 records on 16 February, 2014
WEATHER CONDITIONS BREAKOUT
WIND DIRECTION BREAKOUT
WEATHER BY HOUR - 16 FEBRUARY, 2014
[ °F ]   °C
Local TimeTemperatureDewpointHumidityBarometerVisibilityWind DirectionWind SpeedGust SpeedPrecipitationEventsConditions
1:00 AM-7.8 °C-8.9 °C88 %1006.4 hPaCalm
1:00 AM-8 °C-10 °C86 %1006.1 hPa4 kmVariable3.7 km/hSnowLight Snow
1:38 AM-8 °C-9 °C93 %1006.1 hPa6.4 kmSouth (190°)7.4 km/hSnowLight Snow
2:00 AM-8 °C-9 °C93 %1005.8 hPa0.8 kmSSW (200°)7.4 km/hSnowSnow
2:40 AM-8 °C-9 °C93 %1005.1 hPa2.4 kmSSW (200°)9.3 km/hSnowLight Snow
3:00 AM-8 °C-9 °C93 %1004.7 hPa2.4 kmSSW (200°)7.4 km/hSnowLight Snow
3:53 AM-9 °C-10 °C93 %1004.1 hPa9.7 kmSW (220°)7.4 km/hSnowLight Snow
4:00 AM-9 °C-10 °C93 %1004.1 hPa9.7 kmSW (230°)9.3 km/hSnowLight Snow
4:00 AM-8.3 °C-9.4 °C89 %1004.1 hPaSW (230°)5.6 km/h
5:00 AM-10 °C-12 °C86 %1003.7 hPa24.1 kmSSW (210°)9.3 km/hOvercast
5:42 AM-10 °C-12 °C86 %1003.4 hPa9.7 kmSW (220°)13 km/hSnowLight Snow
6:00 AM-11 °C-13 °C85 %1003.4 hPa9.7 kmSW (220°)13 km/hSnowLight Snow
7:00 AM-11.7 °C-13.3 °C80 %1003.7 hPaSW (220°)7.4 km/h
7:00 AM-12 °C-15 °C79 %1003.4 hPa6.4 kmSSW (210°)11.1 km/hSnowLight Snow
8:00 AM-13 °C-16 °C79 %1003.7 hPa8 kmSSW (210°)13 km/hSnowLight Snow
9:00 AM-12 °C-16 °C73 %1003.7 hPa6.4 kmSW (220°)14.8 km/hSnowLight Snow
10:00 AM-11 °C-14 °C79 %1003.7 hPa8 kmSW (220°)16.7 km/hSnowLight Snow
10:00 AM-10.6 °C-13.9 °C69 %1004.1 hPaSSW (210°)11.1 km/h
11:00 AM-10 °C-13 °C79 %1004.1 hPa48.3 kmSSW (210°)27.8 km/hMostly Cloudy
12:00 PM-8 °C-12 °C73 %1003.4 hPa48.3 kmSW (220°)22.2 km/h33.3 km/hSnowLow Drifting Snow
1:00 PM-5.6 °C-12.8 °C43 %1003.7 hPaWest (280°)27.8 km/h
1:00 PM-5 °C-14 °C50 %1003.7 hPa48.3 kmWest (280°)25.9 km/h46.3 km/hSnowLow Drifting Snow
2:00 PM-6 °C-14 °C54 %1004.7 hPa48.3 kmWNW (290°)27.8 km/h37 km/hOvercast
3:00 PM-7 °C-15 °C54 %1005.8 hPa48.3 kmWNW (300°)22.2 km/h35.2 km/hMostly Cloudy
4:00 PM-7.2 °C-13.9 °C45 %1006.8 hPaWNW (290°)22.2 km/h
4:00 PM-7 °C-15 °C54 %1006.4 hPa48.3 kmWest (280°)25.9 km/h38.9 km/hMostly Cloudy
5:00 PM-8 °C-15 °C58 %1007.5 hPa48.3 kmWest (270°)29.6 km/hMostly Cloudy
6:00 PM-9 °C-15 °C62 %1008.5 hPa24.1 kmWSW (250°)27.8 km/hMostly Cloudy
7:00 PM-8.9 °C-14.4 °C51 %1009.5 hPaWest (260°)20.4 km/h
7:00 PM-9 °C-15 °C62 %1009.1 hPa24.1 kmWest (260°)27.8 km/hMostly Cloudy
8:00 PM-9 °C-16 °C58 %1010.2 hPa24.1 kmWNW (290°)20.4 km/hOvercast
9:00 PM-10 °C-17 °C57 %1011.2 hPa24.1 kmWNW (290°)16.7 km/h27.8 km/hMostly Cloudy
10:00 PM-10 °C-17.2 °C42 %1012.2 hPaWNW (300°)18.5 km/h
10:00 PM-10 °C-18 °C53 %1011.9 hPa24.1 kmWNW (300°)20.4 km/h31.5 km/hMostly Cloudy
11:00 PM-11 °C-19 °C53 %1013.2 hPa24.1 kmWNW (290°)18.5 km/hMostly Cloudy
Hourly data recorded from CYQB, located 0 kilometers away from Quebec City, Quebec




STORIES FROM OUR PARTNERS